Dewpoint
57 58 58 58 58 58 58 59 59 59 60 60 60 60 60 60 60 60 60 60 60 60 60 59 59 60 60 60 59 59 59 35 31 22 23 21 38 49 51 55 55 57 57 51 41 29 20 27 23 17 18 21 26 28 25 30 31 35 30 31 30 33 31 26 24 25 28 29 30 32 32 35 36 37 38 40 41 42 43 42 42 42 42 43 44 45 45 45
58 57 58 58 58 58 58 58 59 59 59 59 60 60 60 60 60 60 60 60 60 60 60 60 60 60 61 59 58 59 49 40 27 27 26 38 52 55 56 55 55 55 56 39 26 23 19 17 15 19 17 21 31 22 27 27 27 32 30 31 29 29 27 22 21 23 24 25 30 30 29 32 34 37 37 39 40 41 41 42 42 41 41 42 43 44 44 44
58 57 58 57 57 58 58 58 58 59 59 59 60 60 60 60 60 59 59 59 59 60 60 60 60 60 60 57 58 58 47 33 27 20 27 54 56 56 57 57 55 55 50 37 34 28 24 18 16 16 15 17 22 24 28 25 28 32 28 28 29 28 21 22 22 22 24 24 24 29 30 34 36 36 38 38 39 41 40 40 41 40 40 41 43 44 44 44
58 58 58 57 57 58 58 58 59 59 59 60 60 60 60 60 60 59 59 59 59 59 60 60 60 60 59 56 58 53 37 32 16 21 28 52 53 54 56 56 55 55 51 47 41 35 25 18 16 13 17 20 23 23 27 26 28 29 29 28 31 22 22 19 23 22 22 24 23 27 28 28 28 33 36 34 39 39 40 40 41 41 41 41 43 44 44 44
59 58 58 57 57 58 58 58 59 59 59 59 60 60 60 60 60 59 59 59 59 60 60 60 60 60 60 59 58 47 30 22 19 21 29 53 53 52 54 55 55 52 47 37 30 26 22 18 15 17 19 16 24 22 24 24 25 28 29 24 19 19 19 21 22 22 22 23 25 26 26 27 29 29 27 27 37 38 36 36 39 42 42 42 42 43 44 44
58 58 58 57 58 58 58 58 59 59 59 60 60 60 60 60 59 59 59 59 59 59 60 60 59 60 59 58 49 39 27 21 26 19 50 52 52 52 53 54 55 49 43 34 28 22 16 13 14 18 17 13 15 14 18 19 24 22 25 19 19 20 19 20 22 22 23 23 24 26 27 28 28 28 28 26 27 29 31 34 41 42 42 43 43 43 43 44
58 58 57 57 57 58 58 58 58 59 59 60 60 60 59 59 59 59 59 59 59 60 60 59 60 59 59 55 48 38 28 23 18 22 49 52 50 49 49 50 54 43 42 29 16 16 14 12 12 20 18 19 17 11 11 13 23 24 20 19 19 21 20 22 22 23 23 23 23 25 28 25 27 27 27 26 28 30 32 35 39 43 43 43 43 43 43 44
58 58 57 57 58 58 58 58 59 59 59 59 60 60 59 58 59 58 58 59 59 59 60 59 59 57 53 45 39 35 27 19 16 26 44 49 34 29 37 22 28 27 22 18 15 13 12 11 10 15 13 14 21 21 26 17 22 24 23 21 20 21 21 21 22 22 22 22 23 23 22 22 23 24 25 25 27 29 32 34 37 41 42 42 43 43 43 43
57 57 57 57 58 58 58 58 58 59 59 59 59 59 59 58 58 58 59 59 59 60 59 60 58 57 54 41 39 28 15 17 20 21 24 24 23 21 21 18 19 19 19 18 16 15 13 13 11 11 17 12 11 30 29 19 21 25 22 20 20 20 21 21 22 22 22 23 22 20 21 22 22 24 22 23 26 29 32 33 35 37 41 41 42 43 43 43
57 57 57 57 58 58 58 58 59 59 59 59 59 59 59 59 58 58 59 59 59 60 60 59 58 55 49 37 35 25 19 19 20 23 22 23 23 21 21 20 19 20 19 19 15 14 14 15 15 13 16 12 20 29 28 25 21 27 25 22 19 19 20 21 20 22 22 22 21 19 19 19 22 22 20 24 26 30 31 32 34 36 38 38 40 42 42 42
57 57 57 58 58 58 58 58 59 59 59 59 58 59 59 59 59 59 59 59 59 59 59 59 57 52 37 32 17 16 19 21 24 22 22 24 24 21 21 20 21 21 20 18 16 18 19 19 21 17 25 22 22 25 26 27 25 20 21 24 21 19 19 19 19 20 20 18 18 17 16 19 22 24 19 21 27 30 30 31 33 34 36 36 38 39 39 40
57 57 57 57 57 58 58 58 59 59 59 59 58 59 59 59 59 59 59 59 60 59 59 57 55 47 32 15 14 14 18 20 26 20 22 23 23 23 22 22 22 22 22 20 22 22 23 23 22 28 20 28 23 24 25 25 19 19 23 20 23 20 17 16 16 17 17 16 18 17 16 17 22 20 23 23 27 30 30 31 32 33 35 36 36 36 34 34
57 57 57 57 57 58 58 58 58 59 58 58 58 59 59 59 59 59 59 58 60 59 57 58 55 49 38 20 16 17 21 22 27 20 21 23 23 23 22 22 22 23 23 22 22 24 27 28 23 29 33 29 33 24 29 22 19 24 20 21 21 22 20 16 16 16 15 16 21 18 13 15 17 19 20 24 27 29 29 30 32 33 35 34 34 35 34 33
56 57 57 57 57 57 58 58 58 58 59 58 58 57 59 59 59 58 57 57 57 56 55 55 52 40 29 18 18 19 20 31 22 17 19 24 22 22 22 22 21 22 24 22 22 24 24 22 25 27 34 28 28 33 22 18 22 15 24 21 18 16 18 18 16 15 15 18 19 21 11 12 14 18 21 24 26 29 29 29 30 33 34 34 33 33 33 34
56 56 56 56 57 57 58 58 58 58 59 59 57 58 59 59 59 59 59 58 59 58 56 56 46 39 25 19 18 19 44 25 15 16 18 23 22 21 22 22 20 21 21 22 21 22 22 20 23 26 26 32 33 29 26 24 21 20 15 18 24 17 21 17 19 18 18 15 17 21 14 15 14 16 20 24 25 29 29 28 29 32 34 34 33 32 33 33
56 56 56 56 57 57 58 58 58 58 58 56 56 56 57 58 57 59 60 60 58 53 52 51 49 35 25 19 18 38 19 14 14 17 17 23 23 22 22 21 21 20 20 21 22 22 21 21 28 28 27 25 25 23 24 21 22 23 21 17 17 17 19 22 22 23 23 21 18 18 13 13 12 15 19 24 24 27 28 27 28 30 32 33 32 32 32 32
56 56 56 56 56 57 57 57 57 58 58 58 56 56 56 54 55 56 55 55 52 53 44 34 33 33 25 21 19 16 15 16 18 17 17 21 23 23 21 20 20 19 20 19 21 22 21 19 27 28 28 19 22 25 17 20 19 20 22 15 20 11 14 12 23 27 20 22 18 20 16 15 14 15 17 19 23 24 24 25 26 29 31 32 32 31 31 32
56 56 56 56 56 57 58 57 57 57 57 57 56 55 52 54 56 55 47 50 48 49 45 37 36 33 21 19 15 15 16 16 16 16 19 19 24 22 22 21 20 19 18 18 18 16 16 17 24 23 21 19 19 22 15 8 18 17 17 17 16 18 18 14 16 24 19 22 21 20 18 17 15 14 16 16 20 22 22 23 24 25 28 31 31 31 31 30
56 55 56 56 56 57 58 58 57 57 55 56 58 58 57 56 55 33 32 32 36 33 30 26 28 26 23 20 17 17 18 18 19 16 17 19 21 23 23 23 21 19 22 21 22 18 25 27 25 20 18 18 18 20 18 19 21 18 19 17 18 16 16 14 22 27 22 17 16 12 9 6 8 10 10 15 18 20 20 21 22 22 24 28 30 30 31 30
56 55 55 56 56 57 58 58 57 56 54 50 50 49 41 38 37 28 30 31 28 29 31 29 27 27 22 18 17 18 20 18 13 14 18 21 21 20 19 19 23 24 28 18 24 20 30 20 18 15 18 19 22 20 22 22 23 23 22 18 16 16 17 19 24 25 24 17 15 13 14 13 11 11 11 9 16 18 19 19 19 20 21 24 27 29 30 30
55 55 55 56 56 57 57 57 57 56 54 50 47 42 37 31 28 18 26 29 31 35 29 27 26 16 16 18 19 19 17 18 13 13 17 24 23 19 20 23 25 22 20 25 22 30 25 21 20 19 19 19 20 23 23 23 24 21 19 18 17 14 8 13 15 25 26 15 15 15 15 14 13 12 11 11 15 16 17 17 18 18 19 20 24 26 28 29
55 55 55 55 56 56 57 57 56 56 52 49 47 40 42 40 41 38 29 18 28 33 30 23 19 16 18 20 19 21 19 12 10 12 18 21 18 22 24 20 22 20 24 26 26 22 19 18 20 22 21 25 26 26 23 21 19 20 17 17 10 10 14 14 23 26 24 18 11 16 14 10 9 10 11 13 13 15 16 17 17 17 18 19 20 22 25 26
55 54 54 55 55 56 57 56 57 54 48 38 38 47 45 46 47 45 40 28 29 34 28 28 21 16 16 16 19 18 10 10 13 13 17 21 21 22 28 25 23 25 23 24 19 20 18 18 17 25 25 23 23 21 20 17 16 15 16 11 8 13 7 7 11 16 15 12 12 10 10 11 12 13 14 16 15 14 16 18 19 19 17 18 19 20 22 23
54 54 54 55 55 55 56 55 55 52 48 45 48 45 46 47 47 47 40 28 25 30 30 27 22 19 19 16 20 20 12 16 16 13 19 20 23 25 26 26 25 26 24 25 23 21 18 18 18 24 25 22 20 22 17 12 5 17 18 14 9 12 10 8 8 14 18 19 20 16 14 11 12 11 12 15 16 16 18 18 18 19 20 19 20 21 22 21
53 53 54 55 55 55 54 54 48 46 46 44 44 46 45 46 47 47 36 26 29 31 32 37 29 18 18 21 20 24 17 19 18 17 22 21 22 28 23 28 26 21 27 25 23 20 18 18 22 23 22 21 17 16 19 14 7 11 16 16 13 14 14 14 15 16 12 8 18 16 8 4 2 5 8 8 16 14 17 17 17 17 18 20 18 19 21 23
52 53 54 55 55 54 53 41 42 41 40 37 44 46 46 46 48 43 29 26 20 26 33 25 24 26 22 21 17 30 26 23 20 17 25 21 29 27 29 23 27 20 25 23 18 20 19 19 17 15 17 17 21 17 18 16 7 -1 6 17 18 14 16 17 16 13 7 -3 5 16 7 6 7 6 6 8 13 14 16 17 17 17 18 18 19 19 19 21
52 53 55 55 54 54 38 32 45 46 39 43 45 46 45 46 47 43 19 21 18 25 26 28 29 22 28 19 22 30 8 8 20 20 20 25 25 32 28 24 27 27 27 24 24 20 22 19 18 21 18 19 17 17 18 14 2 2 15 17 19 17 16 15 16 14 12 18 17 17 11 4 7 7 11 13 11 13 16 17 17 17 18 18 18 18 19 20
53 54 55 55 53 54 45 41 41 41 42 46 46 45 46 47 48 42 26 11 8 27 21 27 25 29 24 28 23 13 9 17 20 14 24 27 26 30 27 23 24 25 26 24 11 20 24 19 18 19 19 18 15 14 18 16 2 5 19 19 19 18 16 17 15 14 15 12 11 12 16 8 7 10 7 16 8 11 15 17 18 18 18 18 19 19 19 20
53 54 54 54 52 53 50 46 47 41 45 45 45 47 48 47 43 29 24 11 18 27 30 30 34 26 28 33 28 28 24 26 19 21 29 26 24 27 20 23 25 25 26 26 20 19 24 23 22 20 13 11 19 17 20 16 7 16 22 21 21 21 19 18 14 14 12 6 3 6 15 2 5 5 0 6 11 10 13 14 16 19 19 18 19 19 20 20
54 54 53 54 51 48 46 45 43 46 46 45 46 46 46 42 33 25 10 1 28 22 27 28 18 13 29 28 27 27 24 25 26 27 29 25 24 24 27 29 29 26 23 27 24 23 23 31 28 21 22 21 19 18 20 20 15 21 19 18 19 18 19 19 18 15 5 -1 7 12 11 2 1 3 -1 -8 6 14 14 10 6 10 17 20 20 20 21 20
54 55 52 52 44 47 46 41 45 46 46 46 46 47 41 32 24 19 3 7 28 30 29 27 21 28 25 22 19 25 26 26 24 26 19 27 18 26 25 20 24 22 17 18 17 22 25 26 17 21 25 22 19 19 23 22 23 17 18 16 8 7 9 9 9 9 -2 -1 7 6 7 2 -6 -1 -4 2 8 10 2 -2 -0 1 4 19 21 22 22 21
54 53 52 48 47 49 46 42 46 46 46 45 47 39 30 18 26 8 4 27 23 24 17 18 25 19 23 26 21 21 15 24 24 25 17 18 19 17 20 5 13 5 8 3 7 18 16 21 24 23 27 16 19 16 16 22 22 20 16 6 -4 -1 -3 -6 -1 -7 -2 -0 4 0 0 -7 -3 -2 -4 -1 -1 1 6 9 5 5 7 12 15 22 24 24
54 53 52 46 47 44 45 45 46 46 46 46 43 34 25 21 2 15 12 14 8 25 20 26 22 18 20 21 19 22 24 10 18 24 25 25 20 21 24 19 19 -7 -20 -1 5 3 8 19 20 23 21 23 18 2 1 -1 13 10 -0 2 -1 -12 -11 -14 -4 -6 -5 2 2 -1 -1 -7 -6 -3 1 -4 -3 -1 1 5 10 12 13 11 15 23 26 26
53 52 45 45 43 43 44 46 46 45 47 43 35 28 22 10 3 25 9 17 17 26 24 23 23 23 21 7 14 20 9 20 18 17 22 21 19 19 22 23 21 16 15 11 -0 -2 -7 5 8 19 12 21 20 9 7 -0 8 9 9 2 2 -3 -14 -14 -8 -15 -9 0 6 2 -7 -1 -9 4 10 3 4 7 10 17 18 17 15 15 17 21 24 26
52 50 46 47 46 46 45 46 44 44 45 38 31 27 12 3 10 4 8 18 23 25 25 25 21 18 18 19 20 23 14 12 22 16 20 13 4 7 12 16 22 19 16 6 7 3 5 0 8 21 19 20 19 21 20 13 5 11 10 10 2 -1 5 -7 -1 -5 -7 -2 -0 -2 -1 8 1 8 9 8 8 7 8 12 13 10 12 17 16 18 20 25
50 48 49 42 40 41 45 46 44 45 41 35 27 21 18 15 4 20 23 27 23 21 26 24 20 17 15 15 20 16 22 8 16 14 13 10 12 13 17 20 20 20 12 -2 3 -2 6 -11 17 19 20 13 15 21 20 10 -7 4 2 0 3 12 -0 -2 4 6 4 -3 0 2 4 5 6 0 1 2 -2 2 6 7 7 10 12 15 18 20 22 23
48 45 37 40 40 42 45 45 45 44 40 34 28 21 21 21 21 25 32 27 22 25 21 11 15 12 5 2 17 13 12 20 17 6 0 17 13 19 19 19 23 18 14 15 9 7 -7 -3 13 16 12 18 19 20 22 22 12 2 -1 4 14 12 11 1 -5 -2 -4 -7 -6 1 0 2 -3 -2 8 4 3 4 5 2 6 8 10 11 15 18 21 22
47 39 39 39 37 44 45 45 45 42 37 28 20 29 21 22 24 28 28 28 25 21 18 14 10 18 8 2 6 2 15 6 13 14 9 15 -1 21 21 21 20 19 18 20 13 13 8 -1 4 17 19 21 21 17 12 19 17 6 4 15 0 -4 -4 4 -1 -8 -9 -9 -4 -2 2 2 4 6 2 1 3 5 3 -2 -2 -2 -4 1 7 9 12 15
45 39 36 38 42 43 45 44 45 38 30 24 22 15 27 26 27 29 29 30 28 23 11 15 15 16 10 11 8 10 9 1 11 7 1 8 -3 17 19 22 18 21 19 21 13 10 10 -6 1 13 15 17 13 12 6 13 18 19 17 9 13 4 1 -6 2 -0 -2 -4 -6 -1 -4 -2 9 12 9 2 3 3 -4 -5 -10 -8 -7 -5 4 10 10 13
41 37 34 37 43 44 43 44 42 34 26 20 22 21 25 27 29 30 30 29 24 17 12 11 17 8 12 10 12 0 16 13 9 8 7 13 -1 18 19 18 19 21 21 21 16 16 5 2 -3 7 16 11 4 10 5 12 10 10 8 7 6 2 10 9 2 1 1 -6 -7 -5 -4 1 4 8 1 2 0 -0 1 -0 -3 -4 -3 -0 1 5 8 10
37 31 35 42 42 45 45 31 27 25 24 20 25 24 29 29 29 29 33 32 29 27 21 23 20 11 16 10 11 15 11 17 15 9 11 12 2 1 18 19 21 19 19 15 11 13 3 7 2 8 6 5 4 12 7 11 12 12 11 10 10 4 -2 -6 -0 3 -1 -6 -4 -9 -4 1 3 5 2 1 1 1 0 -1 -4 -3 -3 2 3 5 6 9
33 27 31 39 41 46 38 24 21 21 23 20 21 29 27 34 29 29 29 30 27 24 25 24 23 21 17 15 18 18 13 12 13 12 15 6 14 3 18 25 22 21 14 12 12 17 12 11 6 7 5 3 3 10 17 16 15 14 9 11 12 10 7 -1 -5 3 -1 4 1 -1 -2 1 3 2 2 1 1 -2 -4 -2 -2 -2 -1 0 4 7 8 9
34 27 33 35 40 39 31 21 25 27 22 26 30 29 30 29 28 28 27 27 25 27 24 23 23 18 20 20 20 16 16 10 17 12 16 17 17 23 25 27 23 20 16 13 13 15 23 6 3 8 10 11 10 15 10 12 15 10 6 11 10 9 11 9 5 2 4 4 4 0 -1 3 3 7 1 -2 0 0 1 2 3 3 2 4 7 8 9 10
34 32 30 37 44 40 28 14 18 21 23 26 28 27 27 27 27 24 27 28 26 21 23 22 22 24 21 21 16 10 17 -1 14 16 11 17 13 27 26 27 22 17 12 13 12 17 4 10 1 2 3 3 6 7 7 7 12 6 5 9 10 12 10 8 6 5 4 8 6 1 -0 2 5 5 5 7 7 7 7 8 7 7 8 9 9 11 12 13
29 31 31 34 37 32 18 28 26 23 24 25 25 23 20 23 29 26 26 26 27 23 19 16 23 22 22 23 20 21 21 8 5 17 12 13 13 25 25 27 25 19 28 28 29 22 4 10 3 -3 -6 -6 -5 -5 -1 4 7 6 9 7 8 9 7 3 4 4 6 8 6 2 4 2 2 4 6 7 7 8 9 9 10 10 11 11 13 13 13 13
27 19 27 27 34 34 28 29 29 25 23 23 18 22 23 25 26 28 27 26 25 23 21 23 23 21 23 17 17 20 19 21 11 7 11 12 16 24 26 24 25 24 29 30 24 19 10 14 9 6 4 -0 3 5 14 16 7 4 7 9 11 9 12 9 4 3 5 6 3 6 5 3 3 5 6 7 8 9 10 10 11 11 12 13 13 13 13 13
29 20 26 18 22 27 23 26 25 24 23 23 12 21 17 25 26 24 30 23 27 22 23 19 22 12 15 19 19 19 22 21 21 15 12 10 12 23 24 26 25 27 29 25 23 13 10 8 12 10 10 7 5 5 10 14 10 10 11 13 14 11 11 10 8 7 9 8 4 6 6 8 6 6 7 9 11 12 12 12 12 11 11 11 10 10 17 10
21 24 28 29 21 21 13 13 26 25 25 22 19 20 19 23 21 17 24 25 24 23 19 22 22 20 20 17 19 10 18 21 20 14 16 14 16 20 19 25 23 27 23 21 19 10 8 6 10 9 10 12 12 11 12 14 13 13 13 13 14 14 12 11 11 11 9 8 6 6 7 8 8 9 10 12 13 13 12 11 11 11 9 10 10 11 11 11
31 28 27 29 30 24 25 24 29 27 25 23 20 21 19 22 20 22 21 23 23 22 21 10 20 23 23 23 18 12 19 2 6 15 14 13 12 15 11 19 24 23 21 19 16 15 10 12 10 10 12 13 13 14 14 14 13 12 13 13 12 12 13 13 13 13 12 12 10 9 10 10 11 12 14 15 15 13 10 10 10 9 10 12 11 11 11 12
28 26 23 27 24 19 19 22 28 24 19 22 13 20 21 23 22 23 24 19 15 22 23 16 18 23 24 23 22 13 16 13 3 2 13 14 8 12 12 15 16 22 21 17 14 16 13 9 14 9 7 10 12 14 13 11 11 10 10 10 10 9 8 9 12 13 15 14 14 14 14 14 15 15 12 12 10 10 10 10 10 10 11 12 12 12 14 15
34 32 29 22 21 20 18 23 23 25 20 19 5 16 20 23 22 24 22 23 15 22 22 17 19 21 24 23 23 20 20 20 21 19 22 15 12 19 10 9 20 17 18 16 14 16 10 10 9 7 7 8 9 10 9 11 11 10 9 8 8 9 6 9 5 10 11 13 14 14 13 14 14 10 10 10 10 10 10 10 10 11 12 12 13 15 16 17
32 32 34 34 25 26 21 18 20 12 12 21 14 18 17 18 24 24 18 24 25 26 25 21 23 22 22 23 22 22 22 23 25 25 25 21 18 19 17 19 19 20 19 17 17 15 13 10 10 9 9 8 7 12 12 11 10 7 5 9 9 5 6 6 7 8 9 10 12 11 11 10 10 12 10 10 10 10 11 11 11 12 12 14 16 17 18 18